Location: Bremen
(53.0793°N, 8.8017°E)
Time: 22:15:29
(UTC+02:00)

Vanguard 2 Rocket - Pass Details

Date: 22 April 2024
Orbit: 556 x 3304 km, 32.9° (Epoch: 20 May)

Event Time Altitude Azimuth Distance (km) Brightness Sun altitude
Rises 03:09:00 0° 267° (W) 7,151 11.2 -20.8°
Reaches altitude 10° 03:14:40 10° 258° (WSW) 6,243 10.8 -20.4°
Maximum altitude 03:30:00 29° 209° (SSW) 4,595 9.8 -19.2°
Drops below altitude 10° 03:43:00 10° 157° (SSE) 5,244 10.5 -18.1°
Sets 03:47:15 0° 147° (SSE) 5,885 10.8 -17.7°
